Weather History for Cumberland, MD

Change the Weather History Date:

Friday, February 14, 2014

  Actual Average (KMRB) Record (KMRB)
Temperature  
Mean Temperature 39 °F 34 °F  
Max Temperature 46 °F 43 °F 67 °F (1949)
Min Temperature 32 °F 24 °F 4 °F (1986)
Degree Days  
Heating Degree Days 26 32  
Month to date heating degree days 456  
Since 1 July heating degree days 3539  
Cooling Degree Days 0 0  
Month to date cooling degree days 0  
Year to date cooling degree days 0  
Moisture  
Dew Point 22 °F    
Average Humidity 52    
Maximum Humidity 87    
Minimum Humidity 34    
Precipitation  
Precipitation 0.00 in 0.08 in 2.91 in (1984)
Month to date precipitation 1.15  
Year to date precipitation 3.59  
Sea Level Pressure  
Sea Level Pressure 29.64 in    
Wind  
Wind Speed 8 mph (West)    
Max Wind Speed 21 mph    
Max Gust Speed 40 mph    
Visibility 10 miles    
Events      
T = Trace of Precipitation, MM = Missing Value Source: NWS Daily Summary

Daily Weather History Graph

Daily Weather History Graph

Search for Another Location

Airport:

Trip Planner

Search our weather history database for the weather conditions in past years. The results will help you decide how hot, cold, wet, or windy it might be!

Date:

Astronomy

Feb. 14, 2014 Rise Set
Actual Time 7:08 AM EST 5:50 PM EST
Civil Twilight 6:40 AM EST 6:18 PM EST
Nautical Twilight 6:09 AM EST 6:49 PM EST
Astronomical Twilight 5:38 AM EST 7:20 PM EST
Moon 5:52 PM EST (2/14) 6:34 AM EST (2/14)
Length of Visible Light 11h 37m
Length of Day
10h 41m
Full, 100% of the Moon is Illuminated
Feb 14
Full
Feb 14
Full
Feb 22
Last Quarter
Mar 1
New
Mar 8
First Quarter

Hourly Weather History & Observations

Time (EST) Temp. Windchill Dew Point Humidity Pressure Visibility Wind Dir Wind Speed Gust Speed Precip Events Conditions
12:03 AM 33.8 °F 29.6 °F 24.8 °F 70% 29.53 in 10.0 mi NNW 4.6 mph 17.3 mph N/A   Scattered Clouds
12:23 AM 33.8 °F 26.4 °F 23.0 °F 65% 29.54 in 10.0 mi NNW 9.2 mph 16.1 mph N/A   Clear
12:43 AM 32.0 °F 28.7 °F 23.0 °F 69% 29.54 in 10.0 mi SSW 3.5 mph - N/A   Clear
1:03 AM 33.8 °F 26.4 °F 23.0 °F 65% 29.54 in 10.0 mi West 9.2 mph 19.6 mph N/A   Clear
1:23 AM 33.8 °F 24.8 °F 21.2 °F 60% 29.55 in 10.0 mi West 12.7 mph 20.7 mph N/A   Scattered Clouds
1:42 AM 33.8 °F 25.8 °F 21.2 °F 60% 29.55 in 10.0 mi WNW 10.4 mph 16.1 mph N/A   Mostly Cloudy
2:03 AM 33.8 °F 30.8 °F 19.4 °F 56% 29.55 in 10.0 mi SSW 3.5 mph - N/A   Overcast
2:23 AM 35.6 °F 28.0 °F 17.6 °F 48% 29.55 in 10.0 mi West 10.4 mph 21.9 mph N/A   Mostly Cloudy
2:43 AM 33.8 °F 27.7 °F 15.8 °F 48% 29.56 in 10.0 mi West 6.9 mph 24.2 mph N/A   Scattered Clouds
3:03 AM 33.8 °F 28.6 °F 14.0 °F 44% 29.55 in 10.0 mi West 5.8 mph 17.3 mph N/A   Clear
3:23 AM 33.8 °F 27.7 °F 14.0 °F 44% 29.56 in 10.0 mi West 6.9 mph 11.5 mph N/A   Clear
3:43 AM 32.0 °F 25.6 °F 14.0 °F 48% 29.55 in 10.0 mi WSW 6.9 mph - N/A   Clear
4:03 AM 32.0 °F 26.4 °F 14.0 °F 48% 29.55 in 10.0 mi WSW 5.8 mph - N/A   Clear
4:24 AM 33.8 °F 27.7 °F 14.0 °F 44% 29.55 in 10.0 mi West 6.9 mph - N/A   Mostly Cloudy
4:44 AM 33.8 °F 30.8 °F 15.8 °F 48% 29.55 in 10.0 mi West 3.5 mph - N/A   Scattered Clouds
5:04 AM 33.8 °F 29.6 °F 17.6 °F 52% 29.56 in 10.0 mi SW 4.6 mph - N/A   Scattered Clouds
5:24 AM 35.6 °F 31.7 °F 17.6 °F 48% 29.55 in 10.0 mi West 4.6 mph - N/A   Overcast
5:44 AM 35.6 °F 29.9 °F 19.4 °F 52% 29.55 in 10.0 mi SSW 6.9 mph - N/A   Overcast
6:04 AM 35.6 °F 29.9 °F 19.4 °F 52% 29.55 in 10.0 mi WNW 6.9 mph 19.6 mph N/A   Overcast
6:24 AM 35.6 °F 27.5 °F 21.2 °F 56% 29.56 in 10.0 mi SW 11.5 mph 20.7 mph N/A   Scattered Clouds
6:44 AM 35.6 °F 28.0 °F 21.2 °F 56% 29.57 in 10.0 mi WSW 10.4 mph 19.6 mph N/A   Mostly Cloudy
7:04 AM 35.6 °F 25.9 °F 21.2 °F 56% 29.55 in 10.0 mi West 16.1 mph 31.1 mph N/A   Scattered Clouds
7:24 AM 35.6 °F 25.5 °F 21.2 °F 56% 29.55 in 7.0 mi WSW 17.3 mph 40.3 mph N/A   Clear
7:44 AM 35.6 °F 25.2 °F 23.0 °F 60% 29.57 in 10.0 mi WSW 18.4 mph 27.6 mph N/A   Clear
8:04 AM 37.4 °F 27.5 °F 23.0 °F 56% 29.57 in 10.0 mi SW 18.4 mph 23.0 mph N/A   Scattered Clouds
8:24 AM 37.4 °F 31.4 °F 23.0 °F 56% 29.57 in 10.0 mi WSW 8.1 mph - N/A   Scattered Clouds
8:43 AM 37.4 °F 32.8 °F 23.0 °F 56% 29.58 in 10.0 mi SW 5.8 mph 17.3 mph N/A   Mostly Cloudy
9:04 AM 37.4 °F 32.1 °F 23.0 °F 56% 29.60 in 10.0 mi SW 6.9 mph - N/A   Overcast
9:24 AM 37.4 °F 33.8 °F 23.0 °F 56% 29.61 in 10.0 mi SW 4.6 mph 24.2 mph N/A   Overcast
9:44 AM 37.4 °F 32.1 °F 23.0 °F 56% 29.62 in 10.0 mi West 6.9 mph 27.6 mph N/A   Overcast
10:04 AM 39.2 °F 29.6 °F 23.0 °F 52% 29.63 in 10.0 mi WNW 19.6 mph 27.6 mph N/A   Overcast
10:24 AM 41.0 °F 32.5 °F 23.0 °F 49% 29.64 in 10.0 mi West 17.3 mph 23.0 mph N/A   Mostly Cloudy
10:44 AM 39.2 °F 32.5 °F 23.0 °F 52% 29.65 in 10.0 mi WSW 10.4 mph 19.6 mph N/A   Mostly Cloudy
11:04 AM 39.2 °F 30.2 °F 23.0 °F 52% 29.65 in 10.0 mi WSW 17.3 mph 33.4 mph N/A   Mostly Cloudy
11:24 AM 41.0 °F 33.5 °F 21.2 °F 45% 29.67 in 10.0 mi West 13.8 mph 27.6 mph N/A   Mostly Cloudy
11:44 AM 39.2 °F 29.3 °F 23.0 °F 52% 29.66 in 7.0 mi West 20.7 mph 35.7 mph N/A   Mostly Cloudy
12:04 PM 41.0 °F 35.2 °F 21.2 °F 45% 29.66 in 10.0 mi WSW 9.2 mph 26.5 mph N/A   Mostly Cloudy
12:25 PM 41.0 °F 35.8 °F 23.0 °F 49% 29.66 in 10.0 mi SW 8.1 mph 18.4 mph N/A   Mostly Cloudy
12:45 PM 42.8 °F 37.5 °F 21.2 °F 42% 29.67 in 10.0 mi West 9.2 mph 17.3 mph N/A   Scattered Clouds
1:05 PM 42.8 °F 41.1 °F 21.2 °F 42% 29.66 in 10.0 mi SSW 3.5 mph 26.5 mph N/A   Scattered Clouds
1:25 PM 42.8 °F 36.6 °F 21.2 °F 42% 29.65 in 10.0 mi WSW 11.5 mph 25.3 mph N/A   Scattered Clouds
1:45 PM 44.6 °F 41.4 °F 21.2 °F 39% 29.65 in 10.0 mi SW 5.8 mph 29.9 mph N/A   Clear
2:05 PM 44.6 °F 40.2 °F 19.4 °F 37% 29.65 in 10.0 mi West 8.1 mph 17.3 mph N/A   Clear
2:25 PM 44.6 °F 39.2 °F 19.4 °F 37% 29.64 in 10.0 mi West 10.4 mph 20.7 mph N/A   Clear
2:45 PM 46.4 °F 45.2 °F 19.4 °F 34% 29.65 in 10.0 mi NW 3.5 mph - N/A   Clear
3:04 PM 44.6 °F 38.1 °F 19.4 °F 37% 29.65 in 10.0 mi WSW 13.8 mph 26.5 mph N/A   Clear
3:25 PM 44.6 °F 39.2 °F 19.4 °F 37% 29.65 in 10.0 mi NW 10.4 mph 23.0 mph N/A   Clear
3:45 PM 46.4 °F - 19.4 °F 34% 29.66 in 10.0 mi Calm Calm - N/A   Clear
4:05 PM 44.6 °F 37.4 °F 19.4 °F 37% 29.66 in 10.0 mi WSW 16.1 mph 20.7 mph N/A   Clear
4:25 PM 46.4 °F - 19.4 °F 34% 29.67 in 10.0 mi Calm Calm - N/A   Clear
4:45 PM 44.6 °F - 19.4 °F 37% 29.68 in 10.0 mi Calm Calm - N/A   Clear
5:04 PM 44.6 °F 39.2 °F 21.2 °F 39% 29.69 in 10.0 mi WSW 10.4 mph - N/A   Clear
5:25 PM 44.6 °F 43.1 °F 19.4 °F 37% 29.71 in 10.0 mi SW 3.5 mph - N/A   Clear
5:45 PM 42.8 °F 40.1 °F 21.2 °F 42% 29.71 in 10.0 mi SSW 4.6 mph - N/A   Mostly Cloudy
6:05 PM 42.8 °F 37.5 °F 21.2 °F 42% 29.72 in 10.0 mi SSW 9.2 mph - N/A   Overcast
6:25 PM 42.8 °F 39.3 °F 19.4 °F 39% 29.72 in 10.0 mi SW 5.8 mph - N/A   Mostly Cloudy
6:45 PM 42.8 °F - 19.4 °F 39% 29.72 in 10.0 mi Calm Calm - N/A   Mostly Cloudy
7:05 PM 42.8 °F - 19.4 °F 39% 29.73 in 10.0 mi Calm Calm - N/A   Scattered Clouds
7:25 PM 41.0 °F - 21.2 °F 45% 29.72 in 10.0 mi Calm Calm - N/A   Scattered Clouds
7:45 PM 41.0 °F - 21.2 °F 45% 29.72 in 10.0 mi Calm Calm - N/A   Clear
8:05 PM 37.4 °F - 23.0 °F 56% 29.72 in 10.0 mi Calm Calm - N/A   Scattered Clouds
8:25 PM 37.4 °F 33.8 °F 23.0 °F 56% 29.73 in 10.0 mi NW 4.6 mph - N/A   Overcast
8:45 PM 35.6 °F - 24.8 °F 65% 29.73 in 10.0 mi Calm Calm - N/A   Mostly Cloudy
9:05 PM 37.4 °F 34.9 °F 24.8 °F 60% 29.74 in 10.0 mi SSW 3.5 mph - N/A   Mostly Cloudy
9:26 PM 41.0 °F 35.8 °F 26.6 °F 57% 29.74 in 10.0 mi WNW 8.1 mph - N/A   Mostly Cloudy
9:46 PM 39.2 °F 35.9 °F 30.2 °F 70% 29.73 in 10.0 mi NNW 4.6 mph - N/A   Mostly Cloudy
10:06 PM 37.4 °F 32.1 °F 30.2 °F 75% 29.74 in 10.0 mi NE 6.9 mph - N/A   Mostly Cloudy
10:26 PM 37.4 °F 31.4 °F 32.0 °F 81% 29.73 in 10.0 mi NNW 8.1 mph - N/A   Overcast
10:46 PM 37.4 °F 32.8 °F 32.0 °F 81% 29.73 in 10.0 mi North 5.8 mph 9.2 mph N/A   Scattered Clouds
11:06 PM 35.6 °F 29.9 °F 32.0 °F 87% 29.73 in 10.0 mi NNE 6.9 mph - N/A   Clear
11:26 PM 35.6 °F 30.7 °F 32.0 °F 87% 29.73 in 10.0 mi North 5.8 mph - N/A   Clear
11:46 PM 35.6 °F - 32.0 °F 87% 29.73 in 10.0 mi Calm Calm - N/A   Clear